Location: Dealu Mare
(46.0500°N, 22.8167°E)
Time: 21:11:42
(UTC+00:00)

ATLAS 2AS CENTAUR R/B - Pass Details

Date: 15 January 2026
Orbit: 1050 x 1161 km, 63.7° (Epoch: 10 February)

Event Time Altitude Azimuth Distance (km) Brightness Sun altitude
Exits shadow 03:39:34 21° 340° (NNW) 2,157 4.0 -25.0°
Maximum altitude 03:43:38 42° 39° (NE) 1,460 3.6 -24.3°
Drops below altitude 10° 03:49:59 10° 109° (ESE) 2,865 6.0 -23.2°
Sets 03:52:47 0° 117° (ESE) 3,823 6.8 -22.7°
